Location: Franzen
(48.6167°N, 15.3833°E)
Time: 05:53:40
(UTC+00:00)

Altair - Pass Details

Date: 04 August 2021
Orbit: 1501 x 1682 km, 47.2° (Epoch: 21 September)

Event Time Altitude Azimuth Distance (km) Brightness Sun altitude
Exits shadow 00:47:39 25° 232° (SW) 2,711 8.3 -20.3°
Maximum altitude 00:53:34 66° 158° (SSE) 1,642 7.4 -19.8°
Drops below altitude 10° 01:02:38 10° 79° (E) 3,661 10.0 -19.1°
Sets 01:05:39 0° 77° (ENE) 4,639 10.7 -18.9°
